Weather in Preveza

Greece     38°57′29″N   20°45′04″E
temp.,
°C
wind,
m/s
gust,
m/s
humid.,
%
clouds,
%
prec.,
mm/h
press.,
hPa
HPBL,
m
19 april, mon
mon1900:00+14wnw226821 0.0 1015331
03:00+13nw227158 0.0 1014390
06:00+13ne117435 0.1 1013102
09:00+13e127724 0.8 1014201
12:00+15sw56660 2.6 10131007
15:00+15wsw89684 4.2 10131165
18:00+14sw796724 3.1 10121183
21:00+13w577426 5.6 1013762
20 april, tue
tue2000:00+13w67735 1.5 1014775
03:00+11nw45795 3.2 1014473
06:00+10nnw34813 0.4 1015344
09:00+11nnw23779 0.5 1017443
12:00+14w45674 0.4 10171104
15:00+15w77610 0.6 10181176
18:00+14w66640 0.0 10171038
21:00+13w45690 0.0 1019652
21 april, wed
wed2100:00+12nw23693 0.0 1019584
03:00+11n22755 0.0 1019229
06:00+10ne22803 0.0 1020151
09:00+12ene22735 0.0 1020268
12:00+14sw11604 0.0 1021590
15:00+16w44580 0.0 1021760
18:00+15w55600 0.0 1020682
21:00+14w33690 0.0 1021414
22 april, thu
thu2200:00+13nw227120 0.0 1022374
03:00+12ne3378100 0.0 1021141
06:00+11ne338099 0.0 1021148
09:00+13ene226994 0.0 1022219
12:00+16e1156100 0.0 1022394
15:00+17wsw4448100 0.0 1022488
18:00+16nne235199 0.0 1021345
21:00+15ne4567100 0.0 1020231
23 april, fri
fri2300:00+15ne3368100 0.0 1020142
03:00+13ne6684100 0.9 1020253
06:00+14ene5780100 0.0 1017231
09:00+15ne4474100 0.0 1017178
12:00+17ene3464100 0.0 1017212
15:00+19ese2261100 0.0 1015157
18:00+18e3360100 0.0 101343
21:00+16ne6877100 0.3 1014292